Погода в Жижгине

Хотите узнать прогноз погоды в Жижгине? Тогда Вам сюда: Погода в Жижгине

Поиск расширенной информации на нашем сайте:

Полезная информация:

Новости сайта



02.01.2020
Опубликован Долгосрочный прогноз погоды по городам России и ближнего зарубежья на январь 2020 года.
Карты: Прогноз на январь и февраль 2020 года, Сравнение прогнозируемой аномалии приземной температуры воздуха на январь 2020 года по разным моделям.




Погода в Жижгине - сегодня

Время (UTC), дата Ветер
(°,м/с) 
Видим.   Явления Облачность Т
(°С)
Тd
(°С)
f(%) Тe
(°С)
Pmin
(гПа)
dP
(гПа)
Po
(мм)
O2
(г/м3)
Тmin Tmax R s Состояние
почвы
21 29.11.20 220 (ЮЗ) 9-14{14}  4000 м  слаб. снег  10/10 300 м 
[Sc]
-2.4 -3.3 94 -8  1032.1  -0.9  772  314           
00 30.11.20 210 (ЮЗ) 9-14{14}  20000 м  {снег}  10/8 300 м средняя 
[Sc|Ac und]
-1.6 -3 90 -7  1030.7  -1.4  771  313           
03 30.11.20 200 (Ю) 8-11{14}  20000 м    10/8 300 м средняя 
[Sc|Ac und]
-1.2 -2.8 89 -6  1029.4  -1.3  770  312  -3    сухой снег
50-90% 
06 30.11.20 200 (Ю) 6{13}  20000 м    10/10 300 м 
[Sc]
-1.5 -2.5 93 -5  1028.7  -0.7  770  312           
09 30.11.20 190 (Ю) 8-11{11}  10 км    10/10 300 м 
[Sc]
-1.5 -1.6 99 -6  1027.5  -1.2  769  312           
12 30.11.20 160 (Ю) 7{12}  10 км    10/10 300 м 
[Sc]
-1.2 -1.8 96 -5  1025.7  -1.8  768  311           
15 30.11.20 170 (Ю) 7{10}  10 км    10/10 300 м 
[Sc]
-0.6 -1.3 95 -5  1023.8  -1.9  766  310    -0.6       
18 30.11.20 170 (Ю) 7{10}  4000 м  слаб. снег  10/10 300 м 
[Sc]
-0.1 -0.3 99 -4  1021.9  -1.9  765  308           
21 30.11.20 170 (Ю) 6{10}  10 км  {снег}  10/10 300 м 
[Sc]
+0.4 +0.1 98 -3  1020.4  -1.5  764  307           
00 01.12.20 170 (Ю) 7{10}  4000 м  слаб. снег  10/10 300 м 
[Sc]
+0.4 +0.4 100 -3  1018.4  -2  762  307           
03 01.12.20 180 (Ю) 8-12{12}  4000 м    10/10 300 м 
[Sc]
+0.6 +0.6 100 -4  1016.3  -2  761  306  -0.6         
06 01.12.20 200 (Ю) 11-15{16}  10 км    10/10 300 м 
[Sc]
+1.1 +0.6 96 -4  1015.7  -0.7  760  305           
09 01.12.20 230 (ЮЗ) 11-16{18}  20000 м    8/8 300 м 
[Sc]
+0.5 -2.1 83 -5  1016.9  1.2  761  306           
12 01.12.20 210 (ЮЗ) 11-15{16}  20000 м    9/9 300 м кучево-дожд. 
[Cb cap]
+0.8 -1 88 -4  1017  0.1  761  306           
15 01.12.20 200 (Ю) 10-14{15}  20000 м    9/9 300 м кучево-дожд. 
[Cb cap]
+0.5 -1.5 86 -4  1017.4  0.4  761  306    +1.3  0.0     
21 01.12.20 180 (Ю) 5{13}  4000 м  слаб. ливневой снег  10/10 300 м кучево-дожд. 
[Cb cap]
+0 +0 100 -3  1017.4  0.2  761  307           
00 02.12.20 280 (З) 4000 м  слаб. ливневой снег  10/10 300 м кучево-дожд. 
[Cb cap]
+0.2 +0.2 100 -3  1018.7  1.2  762  307           
03 02.12.20 270 (З) 10 км  {ливн. осадки}  10/10 300 м кучево-дожд. 
[Cb cap]
+0.2 -0.9 92 -3  1021.3  2.6  764  308  -0.1    равномерный
сухой снег
100% 
06 02.12.20 250 (З) 10 км  {ливн. осадки}  9/8 300 м кучево-дожд., средняя 
[Cb cap|Ac As]
+0.3 -0.4 95 -3  1022.9  1.6  765  308           
09 02.12.20 240 (ЮЗ) 7{10}  20000 м    9/8 300 м кучево-дожд., средняя 
[Cb cap|Ac As]
+0.4 -1.7 86 -3  1024.2  1.3  766  309           
12 02.12.20 240 (ЮЗ) 7{11}  4000 м  слаб. ливневой снег  9/9 300 м кучево-дожд. 
[Cb cap]
-0.5 -1.4 94 -4  1024.8  0.6  767  310           
15 02.12.20 230 (ЮЗ) 8-11{12}  4000 м  слаб. ливневой снег  9/9 300 м кучево-дожд. 
[Cb cap]
-1.3 -1.4 99 -6  1025.1  0.3  767  311    +0.6  0.3     
18 02.12.20 230 (ЮЗ) 8-11{13}  10 км  в посл. час ливневой снег  8/8 300 м кучево-дожд. 
[Cb cap]
-1.6 -2.1 96 -6  1025.3  0.2  767  311           
21 02.12.20 240 (ЮЗ) 10-14{14}  10 км  {ливн. осадки}  9/8 300 м кучево-дожд., средняя 
[Cb cap|Ac As]
-1.1 -1.9 94 -6  1025.6  0.2  767  311           
00 03.12.20 220 (ЮЗ) 9-12{14}  10 км  {ливн. осадки}  10/10 300 м кучево-дожд. 
[Cb cap]
+0.9 +0.4 96 -3  1026  0.5  768  308           
Время (UTC), дата Ветер
(°,м/с) 
Видим.   Явления Облачность Т
(°С)
Тd
(°С)
f(%) Тe
(°С)
Pmin
(гПа)
dP
(гПа)
Po
(мм)
O2
(г/м3)
Тmin Tmax R s Состояние
почвы

Для получения пояснительной информации подведите курсор к названию столбца.

ПОГОДА в Жижгине - архив

Всё, что Вы хотите узнать о погоде в Жижгине - удобно и подробно!

Выберите нужную дату (начиная с 1 января 2019* года) и нажмите кнопку "Найти".
Будут отображены архивные сводки погоды по пункту Жижгин, начиная с указанной даты.


Отображать данные в формате CSV (для использования в таблицах Excel)


Внимание! Наш архив погоды предназначен исключительно для личного некоммерческого использования в познавательных целях. Если Вам необходимы официальные справки о состоянии погоды (для производственных, юридических, коммерческих и т.п. целей), обращайтесь в органы Росгидромета.

*Примечание: данная дата относится к архиву по метеостанциям СССР (Россия, СНГ, Балтия).
Архив по метеостанциям Зарубежной Европы и Азии (кроме Китая) хранится 10 дней, по другим регионам земного шара (Китай, Африка, Америка, Австралия, Океания) - 1 день.

Жижгин - район местоположения метеостанции


Название, широта, долгота, высота метеостанции:
Жижгин 65.2°ш. 36.8°д. 17 м над ур. моря [Российская Федерация]

Дополнительная информация

В oтличие oт бoльшинства пoгoдных сайтoв мы публикуем пoдрoбную метеoинфoрмацию в детальнoм прoфессиoнальнoм фoрмате.

Характеристики температуры и влажнoсти вoздуха измеряются на высoте 2 м в тени вдали oт зданий и деревьев.
Скoрoсть ветра измеряется на высoте 10 м (на урoвне рoста челoвека скoрoсть ветра ниже в 1.5-2 раза). Если метеoстанция нахoдится в гoрoде или в лесу, тo скoрoсть ветра занижена на 2-4 м/с пo сравнению с oткрытым местoм. Скoрoсть ветра над акватoриями крупных рек и oзёр, а также на вершинах хoлмoв на 2-5 м/с выше, чем в oбычных услoвиях.
Атмoсфернoе давление в разных тoчках местнoсти мoжет значительнo oтличаться oт давления на метеoстанции, в зависимoсти oт услoвий рельефа (при пoдъёме на 10 м давление пoнижается примернo на 1 мм рт.ст.).